Weather History for KPRO - August, 2013

Change the Weather History Date:

Sunday, August 4, 2013

  Actual Average Record
Temperature  
Mean Temperature 66 °F -  
Max Temperature 80 °F 82 °F 100 °F (1988)
Min Temperature 52 °F 59 °F 45 °F (1978)
Cooling Degree Days 1    
Growing Degree Days 16 (Base 50)    
Moisture  
Dew Point 54 °F    
Average Humidity 63    
Maximum Humidity 90    
Minimum Humidity 39    
Precipitation  
Precipitation 0.00 in - - ()
Sea Level Pressure  
Sea Level Pressure 30.14 in    
Wind  
Wind Speed 5 mph (SE)    
Max Wind Speed 13 mph    
Max Gust Speed 17 mph    
Visibility 10 miles    
Events      
Averages and records for this station are not official NWS values.
T = Trace of Precipitation, MM = Missing Value Source: NWS Daily Summary

Daily Weather History Graph

Daily Weather History Graph

Search for Another Location

Airport or City:

Trip Planner

Search our weather history database for the weather conditions in past years. The results will help you decide how hot, cold, wet, or windy it might be!

Date:

Astronomy

Aug. 04, 2013 Rise Set
Actual Time 6:13 AM CDT 8:30 PM CDT
Civil Twilight 5:42 AM CDT 9:01 PM CDT
Nautical Twilight 5:04 AM CDT 9:40 PM CDT
Astronomical Twilight 4:21 AM CDT 10:22 PM CDT
Moon 4:15 AM CDT (8/4) 6:54 PM CDT (8/4)
Length of Visible Light 15h 19m
Length of Day
14h 17m
Waning Crescent, 4% of the Moon is Illuminated
Aug 4
Waning Crescent
Aug 6
New
Aug 14
First Quarter
Aug 20
Full
Aug 28
Last Quarter

Hourly Weather History & Observations

Time (CDT) Temp. Heat Index Dew Point Humidity Pressure Visibility Wind Dir Wind Speed Gust Speed Precip Events Conditions
12:15 AM 59.5 °F - 55.6 °F 87% 30.21 in 10.0 mi NNW 4.6 mph - N/A   Clear
12:35 AM 59.9 °F - 55.4 °F 85% 30.21 in 10.0 mi NNW 4.6 mph - N/A   Clear
12:55 AM 59.4 °F - 55.4 °F 87% 30.21 in 10.0 mi North 5.8 mph - N/A   Clear
1:15 AM 58.5 °F - 54.5 °F 87% 30.20 in 10.0 mi North 3.5 mph - N/A   Clear
1:35 AM 59.0 °F - 54.1 °F 84% 30.20 in 10.0 mi North 3.5 mph - N/A   Clear
1:55 AM 57.7 °F - 53.8 °F 87% 30.20 in 10.0 mi North 3.5 mph - N/A   Clear
2:15 AM 57.2 °F - 53.2 °F 87% 30.19 in 10.0 mi NNE 4.6 mph - N/A   Clear
2:35 AM 58.1 °F - 53.4 °F 84% 30.18 in 10.0 mi NNE 4.6 mph - N/A   Clear
2:55 AM 58.3 °F - 53.1 °F 83% 30.17 in 10.0 mi NNE 5.8 mph - N/A   Clear
3:15 AM 55.9 °F - 51.3 °F 84% 30.17 in 10.0 mi Calm Calm - N/A   Clear
3:35 AM 55.0 °F - 51.3 °F 87% 30.17 in 10.0 mi NNE 3.5 mph - N/A   Clear
3:55 AM 56.5 °F - 51.8 °F 84% 30.18 in 10.0 mi Calm Calm - N/A   Clear
4:15 AM 57.0 °F - 52.2 °F 84% 30.19 in 10.0 mi Calm Calm - N/A   Clear
4:35 AM 54.0 °F - 50.2 °F 87% 30.19 in 10.0 mi Calm Calm - N/A   Clear
4:55 AM 53.6 °F - 50.0 °F 88% 30.19 in 10.0 mi Calm Calm - N/A   Clear
5:15 AM 53.2 °F - 50.0 °F 89% 30.19 in 10.0 mi Calm Calm - N/A   Clear
5:35 AM 52.9 °F - 49.5 °F 88% 30.19 in 10.0 mi WSW 4.6 mph - N/A   Clear
5:55 AM 52.7 °F - 49.6 °F 89% 30.20 in 10.0 mi West 3.5 mph - N/A   Clear
6:15 AM 52.0 °F - 48.9 °F 89% 30.20 in 10.0 mi West 3.5 mph - N/A   Clear
6:35 AM 52.5 °F - 49.6 °F 90% 30.20 in 10.0 mi West 5.8 mph - N/A   Clear
6:55 AM 53.4 °F - 50.5 °F 90% 30.19 in 10.0 mi WNW 3.5 mph - N/A   Clear
7:15 AM 54.9 °F - 51.8 °F 89% 30.20 in 10.0 mi NNW 3.5 mph - N/A   Clear
7:35 AM 57.2 °F - 53.6 °F 88% 30.21 in 10.0 mi Calm Calm - N/A   Clear
7:55 AM 59.2 °F - 55.2 °F 87% 30.20 in 10.0 mi Calm Calm - N/A   Clear
8:15 AM 61.2 °F - 54.9 °F 80% 30.21 in 10.0 mi Calm Calm - N/A   Clear
8:35 AM 63.1 °F - 53.4 °F 71% 30.21 in 10.0 mi Calm Calm - N/A   Clear
8:55 AM 64.6 °F - 54.5 °F 70% 30.21 in 10.0 mi Calm Calm - N/A   Clear
9:15 AM 66.4 °F - 55.8 °F 69% 30.20 in 10.0 mi Calm Calm - N/A   Clear
9:35 AM 68.0 °F - 55.8 °F 65% 30.20 in 10.0 mi ESE 4.6 mph - N/A   Clear
9:55 AM 70.0 °F - 55.9 °F 61% 30.20 in 10.0 mi SE 4.6 mph - N/A   Clear
10:15 AM 72.1 °F - 55.9 °F 57% 30.20 in 10.0 mi SE 4.6 mph - N/A   Clear
10:35 AM 73.2 °F - 55.6 °F 54% 30.19 in 10.0 mi SSE 6.9 mph - N/A   Clear
10:55 AM 74.5 °F - 55.0 °F 51% 30.19 in 10.0 mi SSE 8.1 mph - N/A   Clear
11:15 AM 75.0 °F - 53.4 °F 47% 30.18 in 10.0 mi SSE 8.1 mph - N/A   Clear
11:35 AM 76.1 °F - 53.2 °F 45% 30.18 in 10.0 mi SE 9.2 mph - N/A   Clear
11:55 AM 76.8 °F - 52.5 °F 43% 30.18 in 10.0 mi SSE 12.7 mph 17.3 mph N/A   Clear
12:15 PM 77.0 °F - 52.3 °F 42% 30.17 in 10.0 mi SE 6.9 mph - N/A   Clear
12:35 PM 76.3 °F - 52.9 °F 44% 30.16 in 10.0 mi SSE 6.9 mph 16.1 mph N/A   Clear
12:55 PM 77.5 °F - 53.4 °F 43% 30.16 in 10.0 mi South 8.1 mph - N/A   Clear
1:15 PM 78.6 °F - 53.1 °F 41% 30.16 in 10.0 mi South 5.8 mph - N/A   Clear
1:35 PM 79.0 °F - 53.8 °F 42% 30.16 in 10.0 mi South 10.4 mph - N/A   Clear
1:55 PM 79.0 °F - 52.7 °F 40% 30.16 in 10.0 mi SE 8.1 mph - N/A   Clear
2:15 PM 78.3 °F - 52.7 °F 41% 30.15 in 10.0 mi SSE 6.9 mph - N/A   Clear
2:35 PM 78.3 °F - 53.6 °F 42% 30.14 in 10.0 mi SSE 6.9 mph - N/A   Clear
2:55 PM 77.5 °F - 54.0 °F 44% 30.12 in 10.0 mi South 6.9 mph - N/A   Clear
3:15 PM 77.0 °F - 54.9 °F 46% 30.11 in 10.0 mi SE 6.9 mph - N/A   Clear
3:35 PM 77.4 °F - 55.8 °F 47% 30.09 in 10.0 mi SE 9.2 mph - N/A   Clear
3:55 PM 79.0 °F - 55.9 °F 45% 30.09 in 10.0 mi SE 8.1 mph - N/A   Clear
4:15 PM 79.5 °F - 52.7 °F 39% 30.10 in 10.0 mi ESE 6.9 mph - N/A   Clear
4:35 PM 78.8 °F - 52.9 °F 40% 30.09 in 10.0 mi ESE 9.2 mph - N/A   Clear
4:55 PM 80.1 °F 80.1 °F 54.1 °F 41% 30.09 in 10.0 mi SE 5.8 mph - N/A   Clear
5:15 PM 79.7 °F - 53.4 °F 40% 30.09 in 10.0 mi ESE 9.2 mph - N/A   Clear
5:35 PM 79.7 °F - 54.1 °F 41% 30.08 in 10.0 mi ESE 9.2 mph - N/A   Clear
5:55 PM 79.3 °F - 54.3 °F 42% 30.08 in 10.0 mi ESE 6.9 mph - N/A   Clear
6:15 PM 79.3 °F - 54.9 °F 43% 30.07 in 10.0 mi ESE 10.4 mph - N/A   Clear
6:35 PM 79.0 °F - 55.6 °F 44% 30.06 in 10.0 mi SE 9.2 mph - N/A   Clear
6:55 PM 78.8 °F - 54.3 °F 43% 30.06 in 10.0 mi ESE 8.1 mph - N/A   Clear
7:15 PM 77.7 °F - 55.9 °F 47% 30.06 in 10.0 mi SE 5.8 mph - N/A   Clear
7:35 PM 76.3 °F - 55.8 °F 49% 30.06 in 10.0 mi SE 4.6 mph - N/A   Clear
7:55 PM 73.6 °F - 57.6 °F 57% 30.06 in 10.0 mi SE 4.6 mph - N/A   Clear
8:15 PM 73.2 °F - 59.0 °F 61% 30.06 in 10.0 mi ESE 3.5 mph - N/A   Mostly Cloudy
8:35 PM 72.5 °F - 60.1 °F 65% 30.06 in 10.0 mi ESE 4.6 mph - N/A   Overcast
8:55 PM 72.5 °F - 58.5 °F 61% 30.06 in 10.0 mi SE 5.8 mph - N/A   Overcast
9:15 PM 72.9 °F - 57.2 °F 58% 30.06 in 10.0 mi SE 4.6 mph - N/A   Overcast
9:35 PM 72.5 °F - 56.8 °F 58% 30.06 in 10.0 mi SE 5.8 mph - N/A   Overcast
9:55 PM 72.9 °F - 55.9 °F 55% 30.06 in 10.0 mi SSE 5.8 mph - N/A   Overcast
10:15 PM 72.7 °F - 55.9 °F 56% 30.06 in 10.0 mi SSE 6.9 mph - N/A   Overcast
10:35 PM 72.7 °F - 55.8 °F 55% 30.06 in 10.0 mi SSE 5.8 mph - N/A   Overcast
10:55 PM 72.5 °F - 56.3 °F 57% 30.06 in 10.0 mi SSE 6.9 mph - N/A   Overcast
11:15 PM 72.1 °F - 56.5 °F 58% 30.06 in 10.0 mi South 8.1 mph - N/A   Overcast
11:35 PM 70.9 °F - 56.8 °F 61% 30.06 in 10.0 mi South 8.1 mph - N/A   Mostly Cloudy
11:55 PM 69.8 °F - 57.2 °F 64% 30.05 in 10.0 mi SSE 5.8 mph - N/A   Mostly Cloudy